Georgetown, TX

10:04 PM CST on December 11, 2017 (GMT -0600)
Georgetown Municipal

Weather History for KGTU - October, 2012

Change the Weather History Date:

Thursday, October 18, 2012

  Actual Average Record
Temperature  
Mean Temperature 64 °F -  
Max Temperature 78 °F 76 °F 91 °F (2016)
Min Temperature 51 °F 56 °F 45 °F (2017)
Growing Degree Days 14 (Base 50)    
Moisture  
Dew Point 44 °F    
Average Humidity 53    
Maximum Humidity 72    
Minimum Humidity 20    
Precipitation  
Precipitation 0.00 in - - ()
Sea Level Pressure  
Sea Level Pressure 29.89 in    
Wind  
Wind Speed 7 mph (NNE)    
Max Wind Speed 16 mph    
Max Gust Speed 20 mph    
Visibility 10 miles    
Events      
Averages and records for this station are not official NWS values.
T = Trace of Precipitation, MM = Missing Value Source: NWS Daily Summary

Daily Weather History Graph

Daily Weather History Graph

Search for Another Location

Airport or City:

Trip Planner

Search our weather history database for the weather conditions in past years. The results will help you decide how hot, cold, wet, or windy it might be!

Date:

Astronomy

Oct. 18, 2012 Rise Set
Actual Time 7:35 AM CDT 6:55 PM CDT
Civil Twilight 7:11 AM CDT 7:19 PM CDT
Nautical Twilight 6:43 AM CDT 7:47 PM CDT
Astronomical Twilight 6:15 AM CDT 8:15 PM CDT
Moon 11:04 AM CDT (10/18) 9:45 PM CDT (10/18)
Length of Visible Light 12h 08m
Length of Day
11h 19m
Waxing Crescent, 14% of the Moon is Illuminated
Oct 18
Waxing Crescent
Oct 21
First Quarter
Oct 29
Full
Nov 6
Last Quarter
Nov 13
New

Hourly Weather History & Observations

Time (CDT) Temp. Dew Point Humidity Pressure Visibility Wind Dir Wind Speed Gust Speed Precip Events Conditions
12:15 AM 64.4 °F 53.6 °F 68% 29.77 in 10.0 mi North 6.9 mph - N/A   Clear
12:35 AM 64.4 °F 53.6 °F 68% 29.77 in 10.0 mi North 5.8 mph - N/A   Clear
12:55 AM 64.4 °F 53.6 °F 68% 29.78 in 10.0 mi North 5.8 mph - N/A   Clear
1:15 AM 64.4 °F 53.6 °F 68% 29.78 in 10.0 mi North - - N/A   Clear
1:35 AM 66.2 °F 51.8 °F 60% 29.78 in 10.0 mi North 4.6 mph - N/A   Clear
1:55 AM 64.4 °F 51.8 °F 64% 29.78 in 10.0 mi North - - N/A   Clear
2:15 AM 64.4 °F 51.8 °F 64% 29.79 in 10.0 mi North 5.8 mph - N/A   Clear
2:35 AM 62.6 °F 51.8 °F 68% 29.80 in 10.0 mi North 5.8 mph - N/A   Clear
2:55 AM 60.8 °F 51.8 °F 72% 29.81 in 10.0 mi North 6.9 mph - N/A   Clear
3:15 AM 60.8 °F 51.8 °F 72% 29.82 in 10.0 mi North 6.9 mph - N/A   Clear
3:35 AM 60.8 °F 51.8 °F 72% 29.82 in 10.0 mi North 8.1 mph - N/A   Clear
3:55 AM 60.8 °F 50.0 °F 68% 29.82 in 10.0 mi North 9.2 mph - N/A   Clear
4:15 AM 62.6 °F 48.2 °F 59% 29.82 in 10.0 mi North 4.6 mph - N/A   Clear
4:35 AM 62.6 °F 48.2 °F 59% 29.83 in 10.0 mi North 6.9 mph - N/A   Clear
4:55 AM 62.6 °F 48.2 °F 59% 29.84 in 10.0 mi North 5.8 mph - N/A   Clear
5:15 AM 60.8 °F 48.2 °F 63% 29.85 in 10.0 mi North 8.1 mph - N/A   Clear
5:35 AM 62.6 °F 46.4 °F 55% 29.86 in 10.0 mi NNE 8.1 mph - N/A   Clear
5:55 AM 60.8 °F 46.4 °F 59% 29.87 in 10.0 mi North 9.2 mph - N/A   Clear
6:35 AM 60.8 °F 44.6 °F 55% 29.88 in 10.0 mi North 6.9 mph - N/A   Clear
6:46 AM 60.8 °F 42.8 °F 52% 29.89 in 10.0 mi North 6.9 mph - N/A   Clear
7:46 AM 57.2 °F 42.8 °F 59% 29.91 in 10.0 mi North 5.8 mph - N/A   Clear
8:47 AM 60.8 °F 41.0 °F 48% 29.94 in 10.0 mi NNE 6.9 mph - N/A   Clear
9:47 AM 66.2 °F 39.2 °F 37% 29.97 in 10.0 mi NE 9.2 mph - N/A   Clear
10:47 AM 69.8 °F 37.4 °F 31% 29.99 in 10.0 mi NE 11.5 mph 16.1 mph N/A   Clear
11:47 AM 71.6 °F 37.4 °F 29% 29.99 in 10.0 mi ENE 16.1 mph 19.6 mph N/A   Clear
12:47 PM 75.2 °F 37.4 °F 25% 29.97 in 10.0 mi NE 16.1 mph 19.6 mph N/A   Clear
1:47 PM 75.2 °F 35.6 °F 24% 29.94 in 10.0 mi NE 13.8 mph 19.6 mph N/A   Clear
2:47 PM 77.0 °F 35.6 °F 22% 29.92 in 10.0 mi NE 12.7 mph 17.3 mph N/A   Clear
3:50 PM 78.8 °F 35.6 °F 21% 29.91 in 10.0 mi North 13.8 mph 18.4 mph N/A   Clear
4:47 PM 78.8 °F 33.8 °F 20% 29.91 in 10.0 mi NNE 8.1 mph - N/A   Clear
5:46 PM 75.2 °F 35.6 °F 24% 29.91 in 10.0 mi NNE 6.9 mph - N/A   Clear
6:47 PM 73.4 °F 35.6 °F 25% 29.92 in 10.0 mi NE 4.6 mph - N/A   Clear
7:46 PM 62.6 °F 42.8 °F 48% 29.95 in 10.0 mi NNE 3.5 mph - N/A   Clear
8:47 PM 60.8 °F 42.8 °F 52% 29.97 in 10.0 mi Calm Calm - N/A   Clear
9:46 PM 57.2 °F 41.0 °F 55% 29.98 in 10.0 mi North 3.5 mph - N/A   Clear
9:55 PM 57.2 °F 41.0 °F 55% 29.98 in 10.0 mi North 3.5 mph - N/A   Clear
10:15 PM 53.6 °F 42.8 °F 67% 29.99 in 10.0 mi North 3.5 mph - N/A   Clear
10:35 PM 53.6 °F 42.8 °F 67% 29.99 in 10.0 mi North 3.5 mph - N/A   Clear
10:55 PM 53.6 °F 39.2 °F 58% 30.00 in 10.0 mi North 4.6 mph - N/A   Clear
11:15 PM 53.6 °F 42.8 °F 67% 30.00 in 10.0 mi Calm Calm - N/A   Clear
11:35 PM 51.8 °F 41.0 °F 67% 30.01 in 10.0 mi North 4.6 mph - N/A   Clear
11:55 PM 51.8 °F 41.0 °F 67% 30.01 in 10.0 mi Calm Calm - N/A   Clear